WetterOnline ( http://www.wetteronline.de )

Wetter aktuell Prag

Aktuelles Wetter: Prag-Kbely (287m)

6-stündlich | Neueste Meldungen
Ortszeit Temperatur Wetter
Fr, 23.02. 7:00 -5.7° C leicht bewölkt
Fr, 23.02. 1:00 -5.0° C leicht bewölkt
Do, 22.02. 19:00 -2.5° C leicht bewölkt
Do, 22.02. 13:00 0.9° C fast wolkenlos
Do, 22.02. 7:00 -6.1° C leicht bewölkt
Do, 22.02. 1:00 -4.3° C wolkenlos
Mi, 21.02. 19:00 -0.5° C wolkig
Mi, 21.02. 13:00 1.5° C wolkenlos
Ortszeit Temperatur Wetter
Fr, 23.02. 11:00 -2.8° C leicht bewölkt
Fr, 23.02. 10:00 -3.6° C leicht bewölkt
Fr, 23.02. 9:00 -5.6° C leicht bewölkt
Fr, 23.02. 8:00 -6.2° C leicht bewölkt
Fr, 23.02. 7:00 -5.7° C leicht bewölkt
Fr, 23.02. 6:00 -5.7° C leicht bewölkt
Ortszeit Relative Feuchte Sichtweite
Fr, 23.02. 7:00 81% 20 km
Fr, 23.02. 1:00 71% 20 km
Do, 22.02. 19:00 57% 20 km
Do, 22.02. 13:00 41% 30 km
Do, 22.02. 7:00 79% 10 km
Do, 22.02. 1:00 74% 15 km
Mi, 21.02. 19:00 64% 15 km
Mi, 21.02. 13:00 53% 6 km
Ortszeit Relative Feuchte Sichtweite
Fr, 23.02. 11:00 61% 15 km
Fr, 23.02. 10:00 63% 12 km
Fr, 23.02. 9:00 79% 12 km
Fr, 23.02. 8:00 83% 20 km
Fr, 23.02. 7:00 81% 20 km
Fr, 23.02. 6:00 81% 20 km
Ortszeit Niederschlagsmenge Niederschlagsart
Fr, 23.02. 7:00 0.0 l/m2 in 12 Std. -
Fr, 23.02. 1:00 0.0 l/m2 in 6 Std. -
Do, 22.02. 19:00 0.0 l/m2 in 12 Std. -
Do, 22.02. 13:00 0.0 l/m2 in 6 Std. -
Do, 22.02. 7:00 0.0 l/m2 in 12 Std. -
Do, 22.02. 1:00 0.0 l/m2 in 6 Std. -
Mi, 21.02. 19:00 0.0 l/m2 in 12 Std. -
Mi, 21.02. 13:00 0.0 l/m2 in 6 Std. -
Ortszeit Niederschlagsmenge Niederschlagsart
Fr, 23.02. 11:00 0.0 l/m2 in 1 Std. -
Fr, 23.02. 10:00 0.0 l/m2 in 1 Std. -
Fr, 23.02. 9:00 0.0 l/m2 in 1 Std. -
Fr, 23.02. 8:00 0.0 l/m2 in 1 Std. -
Fr, 23.02. 7:00 0.0 l/m2 in 1 Std. -
Fr, 23.02. 6:00 0.0 l/m2 in 1 Std. -
Ortszeit Stärke Spitze Richtung
km/h Bft. km/h Grad Sektor
Fr, 23.02. 7:00 7 2 - 350° N
Fr, 23.02. 1:00 7 2 - 340° N
Do, 22.02. 19:00 11 2 40 50° NO
Do, 22.02. 13:00 25 4 40 60° NO
Do, 22.02. 7:00 7 2 - 20° N
Do, 22.02. 1:00 7 2 - 340° N
Mi, 21.02. 19:00 14 3 - 80° O
Mi, 21.02. 13:00 7 2 - 360° N
Ortszeit Stärke Spitze Richtung
km/h Bft. km/h Grad Sektor
Fr, 23.02. 11:00 18 3 - 50° NO
Fr, 23.02. 10:00 18 3 - 70° O
Fr, 23.02. 9:00 7 2 - 340° N
Fr, 23.02. 8:00 7 2 - 340° N
Fr, 23.02. 7:00 7 2 - 350° N
Fr, 23.02. 6:00 7 2 - 350° N
Ortszeit Untergrenze Bedeckung Gattung
total tief tief mittel hoch
Fr, 23.02. 7:00 3000 m 7/8 7/8 - As -
Fr, 23.02. 1:00 900 m 4/8 4/8 Sc - -
Do, 22.02. 19:00 3300 m 4/8 4/8 - As -
Do, 22.02. 13:00 1020 m 1/8 1/8 Cu - -
Do, 22.02. 7:00 3300 m 2/8 2/8 - Ac -
Do, 22.02. 1:00 - 0/8 0/8 - - -
Mi, 21.02. 19:00 1200 m 6/8 6/8 Sc - -
Mi, 21.02. 13:00 - 0/8 0/8 - - -
Ortszeit Bedeckungsgrad in Achtel und Wolkenuntergrenze
Fr, 23.02. 11:00 1(660m) 3(990m)
Fr, 23.02. 10:00 2(630m) 4(900m)
Fr, 23.02. 9:00 1(900m) 4(3000m)
Fr, 23.02. 8:00 4(3000m)
Fr, 23.02. 7:00 7(3000m)
Fr, 23.02. 6:00 7(3000m)
Ortszeit Luftdruck NN (hPa) Tendenz (hPa in 3 Std.)
Fr, 23.02. 7:00 1023 + 0,1
Fr, 23.02. 1:00 1023 - 0,1
Do, 22.02. 19:00 1023 + 0,7
Do, 22.02. 13:00 1022 - 0,7
Do, 22.02. 7:00 1024 - 0,4
Do, 22.02. 1:00 1024 - 0,3
Mi, 21.02. 19:00 1023 + 1,9
Mi, 21.02. 13:00 1022 + 0,3
Ortszeit Luftdruck NN (hPa) Tendenz (hPa in 3 Std.)
Fr, 23.02. 11:00 1024 + 1,1
Fr, 23.02. 10:00 1024 + 1,2
Fr, 23.02. 9:00 1024 + 0,9
Fr, 23.02. 8:00 1023 + 0,6
Fr, 23.02. 7:00 1023 + 0,1
Fr, 23.02. 6:00 1023 - 0,2
Ortszeit Schneehöhe (cm)
Fr, 23.02. 7:00 -
Fr, 23.02. 1:00 -
Do, 22.02. 19:00 -
Do, 22.02. 13:00 -
Do, 22.02. 7:00 -
Do, 22.02. 1:00 -
Mi, 21.02. 19:00 -
Mi, 21.02. 13:00 -
Ortszeit Schneehöhe (cm)
Fr, 23.02. 11:00 -
Fr, 23.02. 10:00 -
Fr, 23.02. 9:00 -
Fr, 23.02. 8:00 -
Fr, 23.02. 7:00 -
Fr, 23.02. 6:00 -
Link zu dieser Seite / Seite empfehlen

Das Wetter in ...